Location: Newark
(42.7133°N, 87.7910°W)
Time: 06:38:41
(UTC+00:00)

Vanguard 1 Rocket - Pass Details

Date: 19 September 2019
Orbit: 650 x 4226 km, 34.3° (Epoch: 17 October)

Event Time Altitude Azimuth Distance (km) Brightness Sun altitude
Rises 00:24:32 0° 240° (WSW) 8,175 13.2 -6.1°
Reaches altitude 10° 00:30:53 10° 237° (WSW) 6,801 12.6 -7.2°
Maximum altitude 00:49:59 52° 169° (S) 2,844 9.7 -10.7°
Enters shadow 00:59:06 15° 99° (E) 3,557 9.7 -12.3°
